Total_Precipitation_Accumulation
0.00 0.00 0.00 0.00 0.00 0.00 0.00 0.00 0.00 0.01 0.01 0.01 0.04 0.07 0.10 0.11 0.09 0.16 0.22 0.21 0.22 0.33 0.49 0.73 1.06 1.48 2.01 1.97 1.85 1.98 2.21 2.24 2.29 2.55 2.65 2.74 3.06 3.34 3.54 3.65 3.62 3.60 3.48 3.49
0.00 0.00 0.00 0.00 0.00 0.00 0.00 0.00 0.01 0.03 0.02 0.02 0.06 0.10 0.12 0.14 0.14 0.20 0.29 0.34 0.36 0.41 0.63 0.91 1.25 1.78 2.24 2.41 2.44 2.45 2.66 2.89 3.04 3.22 3.56 3.91 4.21 4.45 4.64 4.69 4.27 4.06 3.95 3.88
0.00 0.00 0.00 0.00 0.00 0.00 0.00 0.00 0.02 0.05 0.04 0.05 0.09 0.19 0.23 0.23 0.26 0.32 0.44 0.57 0.71 0.71 0.93 1.19 1.45 1.87 2.25 2.42 2.55 2.65 2.88 3.30 3.75 4.09 4.48 4.89 5.11 5.21 5.02 4.76 4.64 4.50 4.38 4.26
0.00 0.00 0.00 0.00 0.00 0.00 0.01 0.01 0.01 0.02 0.04 0.07 0.10 0.25 0.45 0.43 0.44 0.51 0.62 0.60 0.67 0.84 1.09 1.34 1.62 1.91 2.22 2.42 2.53 2.81 3.31 3.94 4.48 4.89 5.35 5.84 5.99 5.83 5.53 5.12 4.76 4.53 4.27 3.96
0.00 0.00 0.00 0.00 0.01 0.01 0.01 0.01 0.01 0.01 0.01 0.05 0.08 0.21 0.60 0.67 0.66 0.71 0.82 0.70 0.65 0.68 0.89 1.18 1.44 1.67 1.98 2.15 2.39 2.76 3.35 4.05 4.77 5.53 6.14 6.52 6.46 6.16 5.77 5.14 4.56 4.07 3.71 3.41
0.00 0.00 0.01 0.01 0.01 0.00 0.00 0.00 0.01 0.01 0.01 0.04 0.06 0.19 0.62 0.94 1.02 0.98 0.78 0.68 0.61 0.59 0.66 0.80 0.94 1.15 1.40 1.76 2.13 2.55 3.14 3.86 4.54 5.20 5.70 5.80 5.72 5.57 5.12 4.46 3.86 3.49 3.17 2.86
0.02 0.02 0.02 0.01 0.01 0.01 0.01 0.02 0.07 0.10 0.13 0.11 0.10 0.26 0.68 1.00 1.15 1.00 0.76 0.62 0.50 0.49 0.53 0.58 0.67 0.89 1.17 1.45 1.79 2.23 2.67 3.24 3.70 4.07 4.47 4.58 4.58 4.45 4.20 3.79 3.39 2.99 2.51 2.17
0.10 0.07 0.03 0.01 0.01 0.02 0.01 0.02 0.10 0.19 0.17 0.21 0.27 0.51 0.87 0.91 0.91 0.76 0.64 0.57 0.49 0.48 0.51 0.57 0.67 0.81 1.06 1.31 1.55 1.77 2.05 2.40 2.56 2.63 2.83 3.01 3.02 3.05 2.98 2.74 2.51 2.25 1.91 1.59
0.17 0.11 0.04 0.02 0.01 0.02 0.02 0.02 0.04 0.07 0.08 0.22 0.48 0.74 1.03 0.86 0.73 0.66 0.65 0.57 0.51 0.51 0.51 0.56 0.62 0.70 0.83 0.99 1.11 1.20 1.33 1.50 1.58 1.66 1.68 1.75 1.82 1.84 1.80 1.70 1.53 1.35 1.19 1.00
0.16 0.12 0.05 0.02 0.02 0.03 0.04 0.04 0.06 0.10 0.20 0.36 0.56 0.86 1.18 1.17 0.98 0.78 0.64 0.52 0.44 0.45 0.48 0.50 0.55 0.60 0.66 0.72 0.79 0.84 0.88 0.99 1.09 1.15 1.16 1.16 1.16 1.12 1.04 0.98 0.94 0.85 0.75 0.68
0.15 0.15 0.08 0.04 0.04 0.06 0.06 0.06 0.09 0.14 0.16 0.34 0.64 1.11 1.30 1.50 1.41 0.99 0.70 0.55 0.47 0.46 0.47 0.51 0.54 0.48 0.48 0.51 0.57 0.63 0.68 0.72 0.77 0.81 0.84 0.84 0.80 0.75 0.70 0.67 0.65 0.60 0.51 0.44
0.18 0.23 0.21 0.13 0.08 0.07 0.06 0.08 0.14 0.31 0.32 0.30 0.62 1.37 1.61 1.78 1.67 1.27 0.94 0.76 0.69 0.59 0.56 0.59 0.56 0.49 0.46 0.49 0.51 0.54 0.56 0.59 0.64 0.60 0.60 0.64 0.58 0.52 0.49 0.46 0.41 0.38 0.36 0.32
0.16 0.28 0.50 0.46 0.33 0.17 0.10 0.11 0.13 0.17 0.27 0.38 0.73 1.49 1.83 1.80 1.72 1.44 1.15 1.02 0.99 0.92 0.83 0.74 0.66 0.59 0.56 0.53 0.50 0.47 0.44 0.45 0.49 0.48 0.46 0.48 0.47 0.45 0.41 0.36 0.31 0.27 0.27 0.27
0.13 0.31 0.66 0.89 0.65 0.37 0.24 0.15 0.12 0.15 0.36 0.47 0.71 1.22 1.62 1.71 1.66 1.55 1.45 1.46 1.39 1.17 0.94 0.80 0.72 0.65 0.61 0.58 0.53 0.48 0.44 0.40 0.39 0.41 0.40 0.38 0.37 0.36 0.35 0.31 0.30 0.28 0.23 0.19
0.21 0.50 0.52 0.44 0.37 0.32 0.26 0.24 0.19 0.19 0.26 0.48 0.79 1.11 1.47 1.64 1.63 1.64 1.76 1.67 1.42 1.17 0.96 0.86 0.81 0.77 0.72 0.67 0.61 0.53 0.46 0.41 0.37 0.40 0.43 0.41 0.36 0.31 0.29 0.28 0.26 0.25 0.22 0.18
0.26 0.45 0.43 0.39 0.30 0.31 0.30 0.32 0.33 0.31 0.38 0.61 0.87 1.31 1.65 1.76 1.77 1.70 1.72 1.70 1.57 1.35 1.17 1.03 0.93 0.86 0.81 0.75 0.71 0.67 0.62 0.57 0.48 0.45 0.48 0.46 0.41 0.35 0.30 0.25 0.20 0.18 0.16 0.13
0.24 0.39 0.60 0.55 0.31 0.44 0.62 0.52 0.43 0.44 0.53 0.70 0.92 1.17 1.38 1.45 1.53 1.61 1.68 1.72 1.69 1.54 1.36 1.22 1.15 1.09 1.03 0.95 0.88 0.81 0.70 0.60 0.51 0.45 0.42 0.41 0.35 0.31 0.26 0.21 0.17 0.15 0.15 0.14
0.17 0.34 0.50 0.49 0.53 0.84 0.68 0.43 0.39 0.44 0.54 0.57 0.68 0.79 1.00 1.13 1.28 1.48 1.63 1.73 1.75 1.61 1.52 1.43 1.31 1.19 1.11 0.99 0.84 0.66 0.53 0.46 0.40 0.36 0.33 0.28 0.25 0.23 0.19 0.16 0.15 0.15 0.15 0.15
0.08 0.22 0.41 0.51 0.71 0.80 0.71 0.41 0.35 0.54 0.68 0.52 0.54 0.57 0.63 0.71 0.86 1.23 1.36 1.40 1.49 1.48 1.41 1.34 1.24 1.15 1.01 0.84 0.64 0.49 0.41 0.36 0.32 0.30 0.29 0.23 0.18 0.18 0.18 0.16 0.15 0.16 0.18 0.18
0.07 0.16 0.38 0.54 0.79 0.95 0.87 0.35 0.20 0.40 0.87 0.66 0.58 0.58 0.61 0.74 0.85 0.88 0.91 0.91 0.97 1.07 1.10 1.11 1.02 0.91 0.78 0.61 0.46 0.40 0.36 0.33 0.30 0.25 0.22 0.18 0.17 0.17 0.16 0.16 0.16 0.16 0.18 0.18
0.26 0.30 0.47 0.62 0.80 0.88 0.47 0.23 0.32 0.77 0.98 0.73 0.59 0.63 0.76 0.90 0.79 0.56 0.52 0.64 0.74 0.80 0.85 0.84 0.79 0.73 0.61 0.46 0.41 0.41 0.37 0.33 0.25 0.18 0.18 0.17 0.17 0.15 0.14 0.17 0.19 0.18 0.17 0.17
0.42 0.52 0.62 0.67 0.84 0.90 0.35 0.31 0.57 0.66 0.49 0.42 0.43 0.46 0.49 0.46 0.39 0.34 0.36 0.44 0.55 0.64 0.69 0.67 0.62 0.58 0.51 0.43 0.42 0.42 0.38 0.28 0.22 0.21 0.21 0.20 0.17 0.11 0.11 0.19 0.22 0.18 0.18 0.19
0.37 0.47 0.55 0.63 0.76 0.57 0.28 0.28 0.28 0.27 0.32 0.31 0.33 0.34 0.27 0.25 0.29 0.29 0.32 0.39 0.47 0.49 0.50 0.49 0.45 0.42 0.43 0.41 0.42 0.40 0.31 0.22 0.19 0.22 0.24 0.21 0.15 0.13 0.13 0.16 0.19 0.17 0.17 0.16
0.36 0.24 0.31 0.39 0.43 0.31 0.23 0.22 0.22 0.24 0.25 0.24 0.25 0.27 0.24 0.19 0.16 0.20 0.30 0.40 0.43 0.41 0.37 0.38 0.38 0.38 0.40 0.39 0.38 0.35 0.26 0.23 0.24 0.27 0.24 0.20 0.18 0.16 0.14 0.13 0.11 0.11 0.12 0.11
0.37 0.21 0.27 0.37 0.37 0.31 0.32 0.27 0.24 0.23 0.21 0.21 0.23 0.27 0.23 0.16 0.15 0.18 0.27 0.32 0.35 0.36 0.36 0.39 0.45 0.43 0.36 0.32 0.30 0.25 0.23 0.25 0.29 0.28 0.23 0.20 0.17 0.14 0.13 0.10 0.07 0.07 0.06 0.04
0.26 0.27 0.30 0.38 0.35 0.35 0.38 0.26 0.21 0.25 0.31 0.33 0.32 0.26 0.20 0.18 0.17 0.18 0.22 0.25 0.28 0.32 0.36 0.41 0.42 0.35 0.26 0.23 0.24 0.18 0.16 0.19 0.24 0.23 0.19 0.14 0.11 0.10 0.08 0.09 0.08 0.03 0.01 0.01